Simultaneous Nadir Overpasses (SNOs) Predictions

Prediction of SNOs between NOAA-20 and AQUA Satellite Orbit:

Table of predicted SNOs for the next 14.0 days since TLE Epoch: 11/24/2018
Index Date (NOAA-20) Time (NOAA-20) Lat,Lon (NOAA-20) SZA (NOAA-20 ) Date (AQUA) Time (AQUA) Lat,Lon (AQUA) SZA (AQUA ) Distance(km) Time Diff (sec)
1 11/26/2018 05:56:03 -75.23, 147.58 62.24 11/26/2018 05:57:07 -75.22, 147.57 62.30 0.28 64
2 11/26/2018 06:46:20 76.48, -40.96 116.38 11/26/2018 06:46:07 76.47, -41.05 116.41 2.74 13
3 11/28/2018 22:12:49 -75.63, -95.41 62.16 11/28/2018 22:13:28 -75.63, -95.42 62.20 0.31 39
4 11/28/2018 23:03:08 76.77, 75.93 116.55 11/28/2018 23:02:30 76.76, 75.84 116.61 2.47 38
5 12/01/2018 14:29:35 -75.98, 21.51 62.08 12/01/2018 14:29:49 -75.97, 21.49 62.08 0.82 14
6 12/01/2018 15:19:56 77.01,-167.32 116.74 12/01/2018 15:18:53 77.00,-167.41 116.82 2.68 63
7 12/04/2018 05:55:57 75.35, -32.03 119.05 12/04/2018 05:57:03 75.34, -32.11 119.01 2.32 66
8 12/04/2018 06:46:21 -76.36, 138.64 62.08 12/04/2018 06:46:10 -76.36, 138.58 62.06 1.87 11
9 12/06/2018 22:12:52 75.32, 83.66 119.47 12/06/2018 22:13:32 75.33, 83.75 119.41 2.84 40




NCC Satellite Simultaneous Nadir Overpasses (SNOs) Prediction Service
